Flag for Canada Weather past 2 weeks in Nanaimo, British Columbia, Canada

Now
44 °F

Quite cool.


Feels Like: 42 °F
Forecast: 37 / 52 °F
Wind: 3 mph from Northwest

Location: Entrance Island

Current Time: Mar 5, 2015 at 10:52:26 PM

Latest Report: Mar 5, 2015 at 10:00 PM


Visibility: N/A

Pressure: 30.40 "Hg

Humidity: 82%

Dew point: 39 °F

Location of NanaimoLocation

Historic Weather in Nanaimo — Graph

°F

Nanaimo temperature yesterday

Maximum temperature yesterday: 46 °F (at 5:00 PM)
Minimum temperature yesterday: 38 °F (at 2:00 AM)
Average temperature yesterday: 42 °F

Past Weeks' High & Low Weather Summary

 TemperatureHumidityPressure
High50 °F (Feb 27, 4:00 PM)95% (Feb 27, 1:00 AM)30.50 "Hg (Feb 27, 1:00 AM)
Low38 °F (Mar 4, 2:00 AM)36% (Mar 2, 10:00 PM)29.78 "Hg (Feb 27, 7:00 AM)
Average45 °F77%30.25 "Hg
* Reported Feb 18 9:00 PM — Mar 5 9:00 PM, Nanaimo, Weather by CustomWeather, © 2015

Note: Actual official high and low records may vary slightly from our data, if they occured in-between our weather recording intervals... More about our weather records

Advertising

Nanaimo weather history for previous 24 hours

 ConditionsComfort  
Time TempWeatherWind HumidityBarometerVisibility
9:00 PM
Thu, Mar 5
44 °FQuite cool.3 mph81%30.40 "HgN/A
8:00 PM44 °FQuite cool.2 mph81%30.40 "HgN/A
7:00 PM45 °FCool.1 mph74%30.39 "HgN/A
6:00 PM46 °FCool.3 mph68%30.38 "HgN/A
5:00 PM46 °FCool.5 mph66%30.38 "HgN/A
4:00 PM47 °FCool.3 mph60%30.39 "HgN/A
3:00 PM46 °FCool.6 mph61%30.38 "HgN/A
2:00 PM47 °FCool.8 mph56%30.37 "HgN/A
1:00 PM47 °FCool.9 mph59%30.38 "HgN/A
12:00 PM46 °FCool.9 mph63%30.39 "HgN/A
11:00 AM45 °FQuite cool.10 mph67%30.38 "HgN/A
10:00 AM45 °FCool.6 mph64%30.37 "HgN/A
9:00 AM44 °FQuite cool.2 mph72%30.37 "HgN/A
8:00 AM41 °FQuite cool.No wind79%30.36 "HgN/A
7:00 AM41 °FQuite cool.No wind77%30.34 "HgN/A
6:00 AM42 °FQuite cool.3 mph75%30.32 "HgN/A
5:00 AM42 °FQuite cool.3 mph74%30.32 "HgN/A
4:00 AM41 °FQuite cool.5 mph81%30.30 "HgN/A
3:00 AM42 °FQuite cool.3 mph74%30.31 "HgN/A
2:00 AM43 °FQuite cool.3 mph74%30.32 "HgN/A
1:00 AM40 °FQuite cool.3 mph82%30.30 "HgN/A
12:00 AM43 °FQuite cool.2 mph70%30.31 "HgN/A
11:00 PM
Wed, Mar 4
42 °FQuite cool.2 mph66%30.32 "HgN/A
10:00 PM43 °FQuite cool.5 mph67%30.31 "HgN/A
Weather by CustomWeather, © 2015

See weather overviewHow to use our weather pages